TIANWANG 1B (TW-1B)
1 40927U 15051C   19098.49640409  .00012713  00000-0  20779-3 0  9999
2 40927  97.1476 144.3050 0006573 290.7299 174.8937 15.52650182198961
TIANWANG 1A (TW-1A)
1 40928U 15051D   19098.50145573  .00004195  00000-0  10592-3 0  9991
2 40928  97.1536 131.3714 0010202 341.7567 124.3878 15.40320609198218
LAPAN A2
1 40931U 15052B   19097.88817662  .00000787  00000-0  20615-4 0  9992
2 40931   5.9990 208.7077 0013115 224.5971 135.2542 14.76604012190635
LQSAT
1 40958U 15057A   19098.44513113  .00000010  00000-0  92250-5 0  9997
2 40958  97.9043 169.5432 0019620 108.3542 251.9804 14.73071911188315
CHUBUSAT 2
1 41338U 16012B   19098.49550926  .00000383  00000-0  23116-4 0  9997
2 41338  31.0024 237.2207 0013630 118.0817 242.1198 15.00118778172211
CHUBUSAT 3
1 41339U 16012C   19098.47337439  .00000420  00000-0  25942-4 0  9999
2 41339  31.0126 235.5473 0013268 124.2780 235.9122 15.00297001172209
OUFTI-1
1 41458U 16025C   19098.48072004  .00001565  00000-0  84342-4 0  9990
2 41458  98.1037 181.7191 0165984 235.9976 122.5377 15.05543699161860
E-STAR-2
1 41459U 16025D   19098.48063804  .00001447  00000-0  78792-4 0  9990
2 41459  98.1047 181.4250 0167206 237.1680 121.3334 15.05207042161836
AAUSAT 4
1 41460U 16025E   19098.41022283  .00002116  00000-0  11093-3 0  9995
2 41460  98.0989 182.4203 0157589 230.9020 127.8104 15.06976351161937
NUSAT 1
1 41557U 16033B   19098.49094627  .00001462  00000-0  57835-4 0  9998
2 41557  97.4179 186.4164 0013879 182.7794 177.3370 15.27009860159222
BEESAT 4
1 41619U 16040W   19097.90085274 +.00001557 +00000-0 +69342-4 0  9999
2 41619 097.3750 161.4417 0009688 276.5248 083.4886 15.22910479142939
PRATHAM
1 41783U 16059A   19098.12756980  .00000066  00000-0  22062-4 0  9997
2 41783  98.0754 159.2604 0032333 248.0599 111.7165 14.62981953135083
ALSAT 1N
1 41789U 16059G   19098.38219848  .00000092  00000-0  26591-4 0  9998
2 41789  98.0779 161.3510 0027077 236.4189 123.4430 14.64227662135213
NAYIF 1
1 42017U 17008BX  19098.19576518  .00001729  00000-0  71497-4 0  9990
2 42017  97.4095 166.0113 0007774  68.6745 291.5322 15.25297474119022
LILACSAT-1
1 42725U 98067ME  19087.71781172  .15670676  12603-4  45746-3 0  9992
2 42725  51.6064 319.7683 0009359 299.6698  60.5570 16.44549673105565
MAX VALIER SAT
1 42778U 17036P   19097.73222712  .00001104  00000-0  51471-4 0  9995
2 42778  97.3625 156.9573 0014136 114.6219 245.6492 15.21860676 99290
